Flag for Poland Weather past 2 weeks in Zielona Góra, Poland

Now
51 °F

Overcast.


Feels Like: 50 °F
Forecast: 51 / 67 °F
Wind: 5 mph from Southwest

Location: Zielona Gora

Current Time: Jul 30, 2015 at 6:17:58 AM

Latest Report: Jul 30, 2015 at 5:00 AM


Visibility: 31 mi

Pressure: 29.81 "Hg

Humidity: 84%

Dew point: 47 °F

Location of Zielona GóraLocation

Historic Weather in Zielona Góra — Graph

°F

Zielona Góra temperature yesterday

Maximum temperature yesterday: 68 °F (at 6:00 PM)
Minimum temperature yesterday: 53 °F (at 11:00 PM)
Average temperature yesterday: 61 °F

Past Weeks' High & Low Weather Summary

 TemperatureHumidityPressure
High86 °F (Jul 22, 4:00 PM)99% (Jul 15, 4:00 AM)30.10 "Hg (Jul 15, 4:00 AM)
Low49 °F (Jul 30, 3:00 AM)37% (Jul 28, 5:00 PM)29.59 "Hg (Jul 27, 4:00 PM)
Average68 °F66%29.87 "Hg
* Reported Jul 15 4:00 AM — Jul 30 4:00 AM, Zielona Góra, Weather by CustomWeather, © 2015

Note: Actual official high and low records may vary slightly from our data, if they occured in-between our weather recording intervals... More about our weather records

Advertising

Zielona Góra weather history for previous 24 hours

 ConditionsComfort  
Time TempWeatherWind HumidityBarometerVisibility
4:00 AM
Thu, Jul 30
53 °FPassing clouds.6 mph76%29.81 "Hg31 mi
3:00 AM49 °FPassing clouds.5 mph92%29.81 "Hg31 mi
2:00 AM50 °FPassing clouds.3 mph91%29.80 "Hg31 mi
1:00 AM51 °FClear.5 mph87%29.80 "Hg31 mi
12:00 AM51 °FClear.3 mph91%29.80 "Hg31 mi
11:00 PM
Wed, Jul 29
53 °FPassing clouds.3 mph85%29.78 "Hg31 mi
10:00 PM54 °FPassing clouds.5 mph81%29.77 "Hg25 mi
9:00 PM55 °FRain showers. Overcast.5 mph80%29.76 "Hg6 mi
8:00 PM65 °FPassing clouds.3 mph47%29.70 "Hg19 mi
7:00 PM67 °FScattered clouds.6 mph44%29.69 "Hg31 mi
6:00 PM68 °FScattered clouds.6 mph45%29.69 "Hg31 mi
5:00 PM67 °FPartly sunny.5 mph46%29.69 "Hg31 mi
4:00 PM67 °FPartly sunny.5 mph47%29.70 "Hg31 mi
3:00 PM67 °FPartly sunny.3 mph50%29.71 "Hg31 mi
2:00 PM65 °FOvercast.3 mph50%29.73 "Hg31 mi
1:00 PM65 °FOvercast.5 mph47%29.74 "Hg31 mi
12:00 PM65 °FOvercast.5 mph49%29.74 "Hg31 mi
11:00 AM65 °FPartly sunny.6 mph44%29.75 "Hg31 mi
10:00 AM63 °FPartly sunny.6 mph54%29.76 "Hg31 mi
9:00 AM61 °FScattered clouds.5 mph64%29.77 "Hg31 mi
8:00 AM58 °FOvercast.3 mph69%29.78 "Hg31 mi
6:00 AM54 °FScattered clouds.2 mph72%29.78 "Hg28 mi
Weather by CustomWeather, © 2015

See weather overviewHow to use our weather pages